User: anonymous   Login
Location: Indian Springs
(36.5700°N, 115.6700°W)
Time: 21:19:06
(UTC-07:00)
Language:

Cosmos 2278 Rocket - Orbit

View from above orbital plane
View from above orbital plane
View from above satellite
View from above satellite

Ground track
Ground track

The orbit data is extracted from the following two-line orbital elements,

1 23088U 94023B   17119.69564753 +.00000292 +00000-0 +17662-3 0  9991
2 23088 071.0019 023.8319 0003836 205.7589 154.3343 14.14653971188688
Epoch (UTC): 29 April 2017 16:41:43
Eccentricity: 0.0003836
inclination: 71.0019°
perigee height: 841 km
apogee height: 846 km
right ascension of ascending node: 23.8319°
argument of perigee: 205.7589°
revolutions per day: 14.14653971
mean anomaly at epoch: 154.3343°
orbit number at epoch: 18868

The dashed part of the orbit path shows where the satellite is in the earth's shadow,  

DLR